Location: Peebles
(55.6412°N, 3.1714°W)
Time: 22:42:28
(UTC+01:00)

NOAA 16 DEB - Pass Details

Date: 02 July 2022
Orbit: 836 x 880 km, 98.8° (Epoch: 14 August)

Event Time Altitude Azimuth Distance (km) Brightness Sun altitude
Rises 22:57:28 0° 195° (SSW) 3,437 ? -6.0°
Reaches altitude 10° 23:00:07 10° 205° (SSW) 2,511 ? -6.2°
Maximum altitude 23:05:02 31° 267° (W) 1,489 ? -6.5°
Drops below altitude 10° 23:10:02 10° 329° (NNW) 2,546 ? -6.9°
Sets 23:12:44 0° 340° (NNW) 3,493 ? -7.1°
